AFL510 UUEE-UWKD

Flight info

Callsign AFL510
Flight time 1h 48m
Altitude 37000
Route KOGOM3H KOGOM L94 UNORO T788 KOROM KOROM1T
Aircraft A320/M-SDE3FGHIRWY/LB1

Departure

Time 2026-05-07 17:31
Airport Sheremetyevo International Airport (UUEE)

Arrival

Time 2026-05-07 19:19
Airport Kazan International Airport (UWKD)
Time Latitude Longitude Altitude Speed Heading
2026-05-07 16:35 55.96541 37.40586 639 ft 0 kts 255°
2026-05-07 17:17 55.96544 37.40603 642 ft 4 kts 256°
2026-05-07 17:17 55.96550 37.40649 639 ft 4 kts 258°
2026-05-07 17:17 55.96555 37.40696 645 ft 4 kts 265°
2026-05-07 17:18 55.96554 37.40743 642 ft 4 kts 298°
2026-05-07 17:18 55.96546 37.40760 643 ft 0 kts 345°
2026-05-07 17:24 55.96565 37.40752 641 ft 9 kts 346°
2026-05-07 17:24 55.96642 37.40715 639 ft 12 kts 345°
2026-05-07 17:25 55.96731 37.40673 639 ft 14 kts 345°
2026-05-07 17:25 55.96813 37.40723 642 ft 15 kts 67°
2026-05-07 17:25 55.96843 37.40917 643 ft 20 kts 75°
2026-05-07 17:25 55.96884 37.41186 646 ft 23 kts 75°
2026-05-07 17:26 55.96926 37.41472 639 ft 24 kts 75°
2026-05-07 17:26 55.96972 37.41771 643 ft 26 kts 74°
2026-05-07 17:26 55.97018 37.42085 643 ft 27 kts 75°
2026-05-07 17:26 55.97067 37.42411 640 ft 28 kts 75°
2026-05-07 17:27 55.97117 37.42743 646 ft 28 kts 75°
2026-05-07 17:27 55.97169 37.43092 639 ft 29 kts 75°
2026-05-07 17:27 55.97221 37.43441 642 ft 30 kts 75°
2026-05-07 17:27 55.97273 37.43787 643 ft 26 kts 75°
2026-05-07 17:28 55.97320 37.44102 646 ft 20 kts 74°
2026-05-07 17:28 55.97359 37.44338 640 ft 16 kts 63°
2026-05-07 17:28 55.97445 37.44415 644 ft 7 kts 357°
2026-05-07 17:28 55.97457 37.44413 641 ft 0 kts 353°
2026-05-07 17:29 55.97466 37.44410 642 ft 3 kts 352°
2026-05-07 17:29 55.97493 37.44400 641 ft 9 kts 347°
2026-05-07 17:29 55.97562 37.44348 640 ft 6 kts 295°
2026-05-07 17:29 55.97559 37.44275 646 ft 1 kts 255°
2026-05-07 17:30 55.97559 37.44274 646 ft 1 kts 255°
2026-05-07 17:30 55.97519 37.44003 639 ft 59 kts 255°
2026-05-07 17:30 55.97355 37.42908 643 ft 121 kts 255°
2026-05-07 17:30 55.97099 37.41157 646 ft 168 kts 257°
2026-05-07 17:31 55.96768 37.39059 1022 ft 182 kts 256°
2026-05-07 17:31 55.96416 37.36779 1466 ft 199 kts 257°
2026-05-07 17:31 55.96061 37.34310 1995 ft 212 kts 257°
2026-05-07 17:31 55.95677 37.31598 2390 ft 238 kts 256°
2026-05-07 17:32 55.95235 37.28599 2881 ft 261 kts 256°
2026-05-07 17:32 55.94740 37.25375 3518 ft 275 kts 255°
2026-05-07 17:32 55.94246 37.22142 4774 ft 263 kts 256°
2026-05-07 17:32 55.93933 37.20087 5634 ft 256 kts 255°
2026-05-07 17:33 55.93317 37.16041 6636 ft 252 kts 255°
2026-05-07 17:33 55.92853 37.12977 7451 ft 253 kts 255°
2026-05-07 17:33 55.92395 37.09950 8375 ft 254 kts 255°
2026-05-07 17:33 55.91938 37.06929 9246 ft 257 kts 255°
2026-05-07 17:34 55.91657 37.03759 9827 ft 262 kts 270°
2026-05-07 17:34 55.92077 37.00595 9978 ft 267 kts 292°
2026-05-07 17:34 55.93214 36.97933 10001 ft 277 kts 314°
2026-05-07 17:34 55.94801 36.95922 10004 ft 281 kts 320°
2026-05-07 17:35 55.96422 36.93975 10002 ft 282 kts 324°
2026-05-07 17:35 55.98274 36.92682 10005 ft 292 kts 342°
2026-05-07 17:35 56.00334 36.92549 10046 ft 306 kts
2026-05-07 17:35 56.02389 36.93829 10743 ft 319 kts 25°
2026-05-07 17:36 56.04279 36.95955 11589 ft 322 kts 29°
2026-05-07 17:36 56.06170 36.98142 12385 ft 325 kts 29°
2026-05-07 17:36 56.08073 37.00358 13192 ft 328 kts 29°
2026-05-07 17:36 56.09938 37.02790 13739 ft 336 kts 39°
2026-05-07 17:37 56.11481 37.05956 13869 ft 340 kts 55°
2026-05-07 17:37 56.12568 37.09826 14021 ft 358 kts 71°
2026-05-07 17:37 56.13214 37.14191 14543 ft 366 kts 77°
2026-05-07 17:37 56.13831 37.18655 14812 ft 370 kts 76°
2026-05-07 17:38 56.14404 37.23143 14887 ft 369 kts 84°
2026-05-07 17:38 56.14383 37.27705 14891 ft 365 kts 102°
2026-05-07 17:38 56.13628 37.31985 14892 ft 358 kts 121°
2026-05-07 17:38 56.12210 37.35617 15263 ft 354 kts 139°
2026-05-07 17:39 56.10325 37.38396 15952 ft 349 kts 154°
2026-05-07 17:39 56.08168 37.40369 16601 ft 349 kts 159°
2026-05-07 17:39 56.05963 37.42241 17244 ft 353 kts 160°
2026-05-07 17:39 56.03731 37.44111 17879 ft 356 kts 160°
2026-05-07 17:40 56.01470 37.46000 18461 ft 360 kts 160°
2026-05-07 17:40 55.99187 37.47902 19010 ft 363 kts 159°
2026-05-07 17:40 55.96989 37.50199 19539 ft 373 kts 146°
2026-05-07 17:40 55.95118 37.53487 19838 ft 382 kts 131°
2026-05-07 17:41 55.93781 37.57548 20183 ft 389 kts 115°
2026-05-07 17:41 55.92998 37.62196 20753 ft 395 kts 102°
2026-05-07 17:41 55.92472 37.67012 21304 ft 397 kts 102°
2026-05-07 17:41 55.91894 37.71840 21841 ft 399 kts 108°
2026-05-07 17:42 55.90920 37.76476 22360 ft 400 kts 118°
2026-05-07 17:42 55.89584 37.80835 22878 ft 401 kts 122°
2026-05-07 17:42 55.88216 37.85183 23399 ft 404 kts 121°
2026-05-07 17:42 55.86840 37.89575 23824 ft 407 kts 121°
2026-05-07 17:43 55.85459 37.93994 24259 ft 410 kts 121°
2026-05-07 17:43 55.84067 37.98442 24693 ft 412 kts 121°
2026-05-07 17:43 55.82668 38.02900 25131 ft 414 kts 121°
2026-05-07 17:43 55.81300 38.07431 25555 ft 418 kts 116°
2026-05-07 17:44 55.80307 38.12304 25965 ft 422 kts 105°
2026-05-07 17:44 55.79798 38.17477 26200 ft 431 kts 95°
2026-05-07 17:44 55.79804 38.22848 26341 ft 440 kts 87°
2026-05-07 17:44 55.79947 38.28306 26623 ft 444 kts 88°
2026-05-07 17:45 55.80032 38.31952 26854 ft 446 kts 88°
2026-05-07 17:45 55.80170 38.37476 27223 ft 449 kts 85°
2026-05-07 17:45 55.80639 38.42976 27589 ft 451 kts 76°
2026-05-07 17:45 55.81848 38.50118 28084 ft 453 kts 71°
2026-05-07 17:46 55.82487 38.53660 28341 ft 454 kts 71°
2026-05-07 17:46 55.83453 38.59027 28709 ft 456 kts 71°
2026-05-07 17:46 55.84734 38.66168 29192 ft 459 kts 71°
2026-05-07 17:46 55.85758 38.71563 29531 ft 461 kts 67°
2026-05-07 17:47 55.86642 38.75079 29756 ft 461 kts 63°
2026-05-07 17:47 55.88028 38.80249 30075 ft 464 kts 63°
2026-05-07 17:47 55.89417 38.85445 30353 ft 465 kts 63°
2026-05-07 17:47 55.90806 38.90666 30629 ft 467 kts 63°
2026-05-07 17:48 55.92179 38.95846 30893 ft 469 kts 63°
2026-05-07 17:48 55.93571 39.01121 31159 ft 471 kts 63°
2026-05-07 17:48 55.94957 39.06424 31480 ft 471 kts 65°
2026-05-07 17:48 55.96046 39.11933 31857 ft 472 kts 74°
2026-05-07 17:49 55.96681 39.17671 32234 ft 472 kts 83°
2026-05-07 17:49 55.96995 39.23498 32602 ft 471 kts 84°
2026-05-07 17:49 55.97300 39.29317 32968 ft 470 kts 84°
2026-05-07 17:49 55.97610 39.35132 33344 ft 470 kts 83°
2026-05-07 17:50 55.97920 39.40921 33723 ft 469 kts 83°
2026-05-07 17:50 55.98228 39.46707 34070 ft 468 kts 84°
2026-05-07 17:50 55.98528 39.52491 34376 ft 467 kts 84°
2026-05-07 17:50 55.98823 39.58267 34663 ft 467 kts 84°
2026-05-07 17:51 55.99299 39.63987 34936 ft 466 kts 76°
2026-05-07 17:51 56.00233 39.69510 35187 ft 464 kts 66°
2026-05-07 17:51 56.01600 39.74725 35432 ft 462 kts 60°
2026-05-07 17:51 56.03113 39.79801 35682 ft 463 kts 60°
2026-05-07 17:52 56.04617 39.84880 35924 ft 463 kts 60°
2026-05-07 17:52 56.06118 39.89983 36151 ft 463 kts 60°
2026-05-07 17:52 56.07595 39.95021 36380 ft 463 kts 60°
2026-05-07 17:52 56.09091 40.00132 36605 ft 464 kts 60°
2026-05-07 17:53 56.10586 40.05248 36816 ft 464 kts 60°
2026-05-07 17:53 56.12082 40.10378 36909 ft 465 kts 61°
2026-05-07 17:53 56.15068 40.20651 36911 ft 465 kts 61°
2026-05-07 17:54 56.18048 40.30947 36916 ft 465 kts 61°
2026-05-07 17:54 56.21017 40.41254 36918 ft 465 kts 61°
2026-05-07 17:55 56.23967 40.51589 36918 ft 465 kts 63°
2026-05-07 17:55 56.25806 40.62709 36919 ft 467 kts 83°
2026-05-07 17:56 56.25791 40.74361 36918 ft 467 kts 95°
2026-05-07 17:56 56.25322 40.85927 36916 ft 467 kts 95°
2026-05-07 17:57 56.24921 40.95674 36914 ft 467 kts 95°
2026-05-07 17:57 56.24350 41.09193 36915 ft 466 kts 95°
2026-05-07 17:58 56.23843 41.20816 36919 ft 466 kts 95°
2026-05-07 17:58 56.23328 41.32425 36917 ft 466 kts 95°
2026-05-07 17:59 56.22794 41.44029 36918 ft 466 kts 95°
2026-05-07 17:59 56.22248 41.55629 36917 ft 465 kts 95°
2026-05-07 18:00 56.21700 41.67213 36919 ft 465 kts 95°
2026-05-07 18:00 56.21142 41.78795 36916 ft 465 kts 95°
2026-05-07 18:01 56.20567 41.90361 36916 ft 465 kts 95°
2026-05-07 18:01 56.19986 42.01918 36917 ft 465 kts 96°
2026-05-07 18:02 56.19094 42.19245 36921 ft 464 kts 96°
2026-05-07 18:03 56.18479 42.30703 36919 ft 464 kts 96°
2026-05-07 18:03 56.17844 42.42228 36918 ft 464 kts 96°
2026-05-07 18:04 56.17196 42.53748 36917 ft 464 kts 96°
2026-05-07 18:04 56.16534 42.65253 36917 ft 463 kts 96°
2026-05-07 18:05 56.15872 42.76742 36918 ft 463 kts 96°
2026-05-07 18:05 56.15209 42.88237 36919 ft 463 kts 96°
2026-05-07 18:06 56.14541 42.99415 36918 ft 463 kts 96°
2026-05-07 18:08 56.14511 42.99905 36917 ft 463 kts 96°
2026-05-07 18:09 56.14240 43.04001 36628 ft 466 kts 97°
2026-05-07 18:09 56.13736 43.11661 36796 ft 460 kts 96°
2026-05-07 18:10 56.13236 43.20105 36912 ft 461 kts 95°
2026-05-07 18:10 56.13096 43.31619 36910 ft 463 kts 90°
2026-05-07 18:11 56.13011 43.43158 36904 ft 463 kts 91°
2026-05-07 18:11 56.12889 43.54695 36900 ft 463 kts 91°
2026-05-07 18:12 56.12761 43.66218 36896 ft 462 kts 91°
2026-05-07 18:12 56.12636 43.77743 36893 ft 462 kts 91°
2026-05-07 18:13 56.12494 43.89263 36896 ft 462 kts 91°
2026-05-07 18:13 56.12341 44.00708 36901 ft 462 kts 91°
2026-05-07 18:14 56.12181 44.12216 36907 ft 462 kts 91°
2026-05-07 18:14 56.12006 44.23726 36915 ft 462 kts 91°
2026-05-07 18:15 56.11817 44.35232 36922 ft 462 kts 92°
2026-05-07 18:15 56.11625 44.46743 36925 ft 462 kts 92°
2026-05-07 18:16 56.11418 44.58248 36930 ft 462 kts 92°
2026-05-07 18:16 56.11199 44.69760 36931 ft 462 kts 92°
2026-05-07 18:17 56.10979 44.81270 36930 ft 463 kts 92°
2026-05-07 18:17 56.10743 44.92795 36934 ft 463 kts 92°
2026-05-07 18:18 56.10487 45.04307 36937 ft 463 kts 92°
2026-05-07 18:18 56.10217 45.15745 36935 ft 463 kts 92°
2026-05-07 18:19 56.09946 45.27257 36940 ft 462 kts 92°
2026-05-07 18:19 56.09675 45.38754 36941 ft 462 kts 92°
2026-05-07 18:20 56.09381 45.50238 36942 ft 462 kts 92°
2026-05-07 18:20 56.09074 45.61721 36945 ft 461 kts 93°
2026-05-07 18:21 56.08758 45.73188 36944 ft 461 kts 93°
2026-05-07 18:21 56.08435 45.84642 36948 ft 460 kts 93°
2026-05-07 18:22 56.08099 45.96080 36950 ft 460 kts 93°
2026-05-07 18:22 56.07756 46.07519 36951 ft 460 kts 93°
2026-05-07 18:23 56.07410 46.18957 36951 ft 460 kts 93°
2026-05-07 18:23 56.07047 46.30393 36955 ft 460 kts 93°
2026-05-07 18:24 56.06669 46.41833 36959 ft 461 kts 94°
2026-05-07 18:24 56.05924 46.53191 36959 ft 459 kts 106°
2026-05-07 18:25 56.03767 46.63849 36961 ft 459 kts 112°
2026-05-07 18:25 56.01487 46.74507 36964 ft 459 kts 111°
2026-05-07 18:26 55.99201 46.85146 36971 ft 458 kts 112°
2026-05-07 18:26 55.96902 46.95751 36970 ft 458 kts 112°
2026-05-07 18:27 55.94603 47.06341 36974 ft 457 kts 112°
2026-05-07 18:27 55.92298 47.16908 36976 ft 457 kts 112°
2026-05-07 18:28 55.89987 47.27440 36975 ft 456 kts 112°
2026-05-07 18:28 55.87668 47.37970 36977 ft 456 kts 112°
2026-05-07 18:29 55.85343 47.48462 36975 ft 456 kts 112°
2026-05-07 18:29 55.83006 47.58939 36976 ft 455 kts 112°
2026-05-07 18:30 55.80665 47.69385 36974 ft 453 kts 112°
2026-05-07 18:30 55.79513 47.74508 36974 ft 439 kts 112°
2026-05-07 18:30 55.78396 47.79467 36978 ft 426 kts 112°
2026-05-07 18:30 55.77503 47.84435 36978 ft 420 kts 98°
2026-05-07 18:31 55.77486 47.89587 36979 ft 418 kts 79°
2026-05-07 18:31 55.78306 47.94431 36976 ft 416 kts 63°
2026-05-07 18:31 55.79833 47.98765 36977 ft 414 kts 47°
2026-05-07 18:31 55.81926 48.02228 36981 ft 411 kts 32°
2026-05-07 18:32 55.84439 48.04556 36976 ft 407 kts 16°
2026-05-07 18:32 55.87191 48.05567 36977 ft 403 kts 360°
2026-05-07 18:32 55.89963 48.05209 36979 ft 399 kts 344°
2026-05-07 18:32 55.92558 48.03576 36976 ft 395 kts 329°
2026-05-07 18:33 55.94802 48.00814 36977 ft 391 kts 314°
2026-05-07 18:33 55.96554 47.97139 36976 ft 389 kts 300°
2026-05-07 18:33 55.97784 47.92852 36974 ft 388 kts 292°
2026-05-07 18:34 55.99673 47.83838 36972 ft 387 kts 287°
2026-05-07 18:34 56.01302 47.74673 36973 ft 387 kts 287°
2026-05-07 18:35 56.02918 47.65504 36972 ft 386 kts 282°
2026-05-07 18:35 56.03219 47.60760 36973 ft 385 kts 268°
2026-05-07 18:35 56.02833 47.56039 36974 ft 385 kts 253°
2026-05-07 18:35 56.01767 47.51652 36974 ft 387 kts 239°
2026-05-07 18:36 56.00083 47.47890 36973 ft 390 kts 224°
2026-05-07 18:36 55.97900 47.45018 36975 ft 394 kts 210°
2026-05-07 18:36 55.95341 47.43227 36973 ft 398 kts 194°
2026-05-07 18:36 55.92582 47.42702 36972 ft 403 kts 179°
2026-05-07 18:37 55.89845 47.43515 36975 ft 407 kts 163°
2026-05-07 18:37 55.87246 47.45688 36971 ft 411 kts 147°
2026-05-07 18:37 55.85106 47.48971 36974 ft 414 kts 131°
2026-05-07 18:37 55.83516 47.53236 36977 ft 416 kts 115°
2026-05-07 18:38 55.82556 47.58099 36973 ft 418 kts 108°
2026-05-07 18:38 55.80719 47.67906 36972 ft 418 kts 110°
2026-05-07 18:39 55.78746 47.77625 36972 ft 418 kts 110°
2026-05-07 18:39 55.77489 47.87610 36974 ft 417 kts 86°
2026-05-07 18:39 55.78021 47.92645 36975 ft 415 kts 68°
2026-05-07 18:40 55.79334 47.97183 36977 ft 413 kts 51°
2026-05-07 18:40 55.81302 48.00851 36977 ft 410 kts 34°
2026-05-07 18:40 55.83749 48.03371 36979 ft 406 kts 18°
2026-05-07 18:40 55.86477 48.04566 36976 ft 402 kts
2026-05-07 18:41 55.89254 48.04372 36973 ft 398 kts 346°
2026-05-07 18:41 55.91861 48.02848 36974 ft 394 kts 330°
2026-05-07 18:41 55.94119 48.00138 36973 ft 391 kts 315°
2026-05-07 18:41 55.95870 47.96471 36972 ft 388 kts 300°
2026-05-07 18:42 55.96707 47.93668 36972 ft 387 kts 293°
2026-05-07 18:42 55.98670 47.84733 36973 ft 387 kts 288°
2026-05-07 18:43 56.00313 47.75586 36972 ft 386 kts 287°
2026-05-07 18:43 56.02153 47.64965 36493 ft 381 kts 279°
2026-05-07 18:43 56.02341 47.60288 36115 ft 376 kts 265°
2026-05-07 18:44 56.02085 47.57176 35854 ft 373 kts 256°
2026-05-07 18:44 56.01154 47.52875 35458 ft 371 kts 241°
2026-05-07 18:44 55.99633 47.49179 35063 ft 371 kts 227°
2026-05-07 18:44 55.97630 47.46300 34670 ft 371 kts 212°
2026-05-07 18:45 55.95307 47.44450 34282 ft 372 kts 198°
2026-05-07 18:45 55.92756 47.43721 34004 ft 373 kts 183°
2026-05-07 18:45 55.90172 47.44188 33959 ft 377 kts 168°
2026-05-07 18:45 55.87696 47.45819 33968 ft 382 kts 153°
2026-05-07 18:46 55.85528 47.48563 33973 ft 385 kts 136°
2026-05-07 18:46 55.83845 47.52273 33972 ft 387 kts 120°
2026-05-07 18:46 55.82783 47.56658 33974 ft 388 kts 107°
2026-05-07 18:46 55.81963 47.61226 33834 ft 387 kts 108°
2026-05-07 18:47 55.81099 47.65748 33408 ft 384 kts 109°
2026-05-07 18:47 55.80216 47.70211 32997 ft 381 kts 110°
2026-05-07 18:47 55.79328 47.74631 32592 ft 378 kts 110°
2026-05-07 18:47 55.78449 47.79009 32198 ft 375 kts 109°
2026-05-07 18:48 55.77709 47.83418 31811 ft 371 kts 97°
2026-05-07 18:48 55.77699 47.87952 31438 ft 366 kts 78°
2026-05-07 18:48 55.78479 47.92192 31046 ft 360 kts 59°
2026-05-07 18:48 55.79933 47.95751 30652 ft 354 kts 41°
2026-05-07 18:49 55.81889 47.98317 30256 ft 347 kts 24°
2026-05-07 18:49 55.84110 47.99683 29983 ft 340 kts
2026-05-07 18:49 55.86453 47.99850 29966 ft 337 kts 350°
2026-05-07 18:49 55.88712 47.98846 29969 ft 334 kts 334°
2026-05-07 18:50 55.90693 47.96738 29968 ft 331 kts 317°
2026-05-07 18:50 55.92236 47.93730 29967 ft 329 kts 301°
2026-05-07 18:50 55.93286 47.90134 29973 ft 328 kts 292°
2026-05-07 18:51 55.94874 47.82499 29967 ft 328 kts 288°
2026-05-07 18:51 55.96274 47.74752 29971 ft 328 kts 287°
2026-05-07 18:52 55.97693 47.67035 29559 ft 325 kts 285°
2026-05-07 18:52 55.98029 47.63082 29156 ft 321 kts 270°
2026-05-07 18:52 55.97755 47.59154 28755 ft 319 kts 255°
2026-05-07 18:52 55.96889 47.55536 28353 ft 318 kts 239°
2026-05-07 18:53 55.95489 47.52484 27938 ft 319 kts 224°
2026-05-07 18:53 55.93669 47.50231 27519 ft 320 kts 208°
2026-05-07 18:53 55.91563 47.48945 27132 ft 322 kts 192°
2026-05-07 18:53 55.89328 47.48734 26753 ft 324 kts 176°
2026-05-07 18:54 55.87128 47.49652 26378 ft 326 kts 160°
2026-05-07 18:54 55.85156 47.51646 26005 ft 328 kts 143°
2026-05-07 18:54 55.83572 47.54552 25644 ft 328 kts 126°
2026-05-07 18:54 55.82506 47.58124 25295 ft 328 kts 109°
2026-05-07 18:55 55.81788 47.61969 24926 ft 327 kts 109°
2026-05-07 18:55 55.81057 47.65783 24585 ft 325 kts 109°
2026-05-07 18:55 55.80313 47.69574 24261 ft 324 kts 110°
2026-05-07 18:55 55.79576 47.73281 23944 ft 322 kts 110°
2026-05-07 18:56 55.78823 47.77067 23623 ft 320 kts 110°
2026-05-07 18:56 55.78098 47.80742 23222 ft 320 kts 111°
2026-05-07 18:56 55.76993 47.84232 22331 ft 331 kts 134°
2026-05-07 18:56 55.75262 47.87016 21430 ft 344 kts 143°
2026-05-07 18:57 55.73349 47.89679 20698 ft 353 kts 144°
2026-05-07 18:57 55.71404 47.92340 20215 ft 353 kts 144°
2026-05-07 18:57 55.69459 47.94990 19799 ft 351 kts 144°
2026-05-07 18:57 55.67526 47.97616 19402 ft 350 kts 144°
2026-05-07 18:58 55.65598 48.00230 19037 ft 348 kts 144°
2026-05-07 18:58 55.63678 48.02827 18948 ft 347 kts 144°
2026-05-07 18:58 55.61753 48.05427 18974 ft 348 kts 144°
2026-05-07 18:58 55.59884 48.08148 18973 ft 349 kts 136°
2026-05-07 18:59 55.58475 48.11630 18969 ft 351 kts 114°
2026-05-07 18:59 55.57852 48.15766 18775 ft 348 kts 96°
2026-05-07 18:59 55.57652 48.20020 18364 ft 346 kts 87°
2026-05-07 18:59 55.58030 48.24185 17961 ft 343 kts 75°
2026-05-07 19:00 55.58612 48.28266 17537 ft 341 kts 74°
2026-05-07 19:00 55.59206 48.32321 17150 ft 339 kts 74°
2026-05-07 19:00 55.59796 48.36351 16778 ft 337 kts 74°
2026-05-07 19:00 55.60379 48.40352 16412 ft 335 kts 74°
2026-05-07 19:01 55.60958 48.44334 16053 ft 333 kts 74°
2026-05-07 19:01 55.61523 48.48248 15718 ft 332 kts 74°
2026-05-07 19:01 55.62304 48.52040 15383 ft 326 kts 57°
2026-05-07 19:01 55.63571 48.55338 15032 ft 323 kts 51°
2026-05-07 19:02 55.64902 48.58537 14694 ft 322 kts 51°
2026-05-07 19:02 55.66242 48.61695 14369 ft 320 kts 50°
2026-05-07 19:02 55.67592 48.64829 13985 ft 321 kts 50°
2026-05-07 19:02 55.68961 48.68003 13347 ft 328 kts 50°
2026-05-07 19:03 55.70360 48.71240 12683 ft 332 kts 50°
2026-05-07 19:03 55.71754 48.74461 12045 ft 325 kts 50°
2026-05-07 19:03 55.73118 48.77611 11417 ft 319 kts 50°
2026-05-07 19:03 55.74456 48.80696 10801 ft 312 kts 50°
2026-05-07 19:04 55.75770 48.83720 10192 ft 306 kts 50°
2026-05-07 19:04 55.76899 48.86879 9562 ft 303 kts 67°
2026-05-07 19:04 55.77231 48.90529 8917 ft 301 kts 93°
2026-05-07 19:04 55.76657 48.94054 8279 ft 298 kts 118°
2026-05-07 19:05 55.75553 48.97137 7655 ft 294 kts 124°
2026-05-07 19:05 55.74401 49.00093 7124 ft 287 kts 124°
2026-05-07 19:05 55.73300 49.02890 6973 ft 265 kts 124°
2026-05-07 19:05 55.72272 49.05489 6969 ft 255 kts 124°
2026-05-07 19:06 55.71255 49.08058 6976 ft 254 kts 124°
2026-05-07 19:06 55.69220 49.13181 6972 ft 254 kts 124°
2026-05-07 19:06 55.68203 49.15735 6976 ft 253 kts 124°
2026-05-07 19:07 55.67186 49.18282 6975 ft 253 kts 124°
2026-05-07 19:07 55.66181 49.20797 6976 ft 253 kts 124°
2026-05-07 19:07 55.65200 49.23247 6975 ft 253 kts 124°
2026-05-07 19:07 55.64239 49.25644 6976 ft 253 kts 124°
2026-05-07 19:08 55.63233 49.28147 6974 ft 253 kts 124°
2026-05-07 19:08 55.62215 49.30679 6976 ft 253 kts 124°
2026-05-07 19:08 55.60998 49.32901 6974 ft 253 kts 149°
2026-05-07 19:08 55.59333 49.33815 6972 ft 253 kts 180°
2026-05-07 19:09 55.57642 49.33137 6974 ft 251 kts 211°
2026-05-07 19:09 55.56392 49.31071 6975 ft 247 kts 242°
2026-05-07 19:09 55.55927 49.28216 6976 ft 242 kts 273°
2026-05-07 19:09 55.56148 49.25280 6974 ft 241 kts 287°
2026-05-07 19:10 55.56737 49.22513 6973 ft 241 kts 294°
2026-05-07 19:10 55.57372 49.19795 6709 ft 239 kts 294°
2026-05-07 19:10 55.58010 49.17095 6378 ft 238 kts 294°
2026-05-07 19:10 55.58649 49.14401 6058 ft 237 kts 294°
2026-05-07 19:11 55.59289 49.11718 5710 ft 236 kts 294°
2026-05-07 19:11 55.59933 49.09043 5373 ft 236 kts 294°
2026-05-07 19:11 55.60576 49.06384 5028 ft 235 kts 294°
2026-05-07 19:11 55.61222 49.03735 4704 ft 234 kts 294°
2026-05-07 19:12 55.61870 49.01094 4347 ft 234 kts 294°
2026-05-07 19:12 55.62526 48.98462 4034 ft 233 kts 294°
2026-05-07 19:12 55.63183 48.95870 3998 ft 232 kts 294°
2026-05-07 19:12 55.63849 48.93258 3987 ft 234 kts 294°
2026-05-07 19:13 55.64519 48.90641 3982 ft 234 kts 294°
2026-05-07 19:13 55.65199 48.88023 3990 ft 234 kts 297°
2026-05-07 19:13 55.66209 48.85822 3989 ft 226 kts 323°
2026-05-07 19:13 55.67585 48.84705 3992 ft 216 kts 349°
2026-05-07 19:14 55.69056 48.84758 3994 ft 216 kts 15°
2026-05-07 19:14 55.70388 48.85953 3987 ft 217 kts 41°
2026-05-07 19:14 55.71293 48.88065 3994 ft 217 kts 67°
2026-05-07 19:14 55.71591 48.90669 3995 ft 217 kts 92°
2026-05-07 19:15 55.71485 48.93333 3897 ft 216 kts 95°
2026-05-07 19:15 55.71377 48.96034 3447 ft 225 kts 95°
2026-05-07 19:15 55.71263 48.98823 2923 ft 228 kts 97°
2026-05-07 19:15 55.70811 49.01423 2695 ft 215 kts 122°
2026-05-07 19:16 55.69993 49.03584 2696 ft 209 kts 126°
2026-05-07 19:16 55.69172 49.05704 2701 ft 208 kts 126°
2026-05-07 19:16 55.68371 49.07787 2696 ft 199 kts 126°
2026-05-07 19:16 55.67608 49.09773 2512 ft 192 kts 126°
2026-05-07 19:17 55.66869 49.11696 2195 ft 186 kts 126°
2026-05-07 19:17 55.66150 49.13563 1934 ft 181 kts 125°
2026-05-07 19:17 55.65458 49.15362 1694 ft 172 kts 125°
2026-05-07 19:17 55.64804 49.17058 1456 ft 161 kts 125°
2026-05-07 19:18 55.64196 49.18636 1290 ft 152 kts 125°
2026-05-07 19:18 55.63603 49.20172 1068 ft 150 kts 124°
2026-05-07 19:18 55.63014 49.21697 856 ft 150 kts 123°
2026-05-07 19:18 55.62430 49.23230 652 ft 151 kts 123°
2026-05-07 19:19 55.61843 49.24739 465 ft 150 kts 124°
2026-05-07 19:19 55.61270 49.26227 409 ft 134 kts 124°
2026-05-07 19:19 55.60864 49.27259 415 ft 49 kts 125°
2026-05-07 19:19 55.60695 49.27697 409 ft 40 kts 124°
2026-05-07 19:20 55.60542 49.28086 411 ft 32 kts 125°
2026-05-07 19:20 55.60425 49.28390 408 ft 20 kts 124°
2026-05-07 19:20 55.60392 49.28562 414 ft 14 kts 70°
2026-05-07 19:20 55.60435 49.28631 417 ft 0 kts 34°
2026-05-07 19:21 55.60440 49.28636 417 ft 2 kts 34°
2026-05-07 19:21 55.60441 49.28638 417 ft 0 kts 34°
2026-05-07 19:22 55.60443 49.28640 417 ft 3 kts 34°
2026-05-07 19:22 55.60485 49.28691 412 ft 9 kts 34°
2026-05-07 19:22 55.60534 49.28750 416 ft 8 kts 33°
2026-05-07 19:23 55.60578 49.28824 407 ft 10 kts 64°
2026-05-07 19:23 55.60580 49.28936 416 ft 9 kts 96°
2026-05-07 19:23 55.60576 49.29071 416 ft 11 kts 87°
2026-05-07 19:23 55.60610 49.29179 410 ft 12 kts 43°
2026-05-07 19:24 55.60667 49.29248 413 ft 9 kts 32°
2026-05-07 19:24 55.60716 49.29308 411 ft 11 kts 35°
2026-05-07 19:24 55.60785 49.29392 413 ft 10 kts 34°
2026-05-07 19:24 55.60793 49.29401 411 ft 0 kts 34°
2026-05-07 19:25 55.60808 49.29428 416 ft 7 kts 57°
2026-05-07 19:25 55.60818 49.29499 411 ft 5 kts 66°
2026-05-07 19:26 55.60842 49.29539 414 ft 4 kts 36°
2026-05-07 19:26 55.60856 49.29557 409 ft 0 kts 35°